STARLINK-2421 (48098 NORAD) Tracking and Keplerian Element Data

This shows tracking and keplerian element data for the satellite.

Feedback or suggestion? Click here.




ElementValue
Catalog48098
NameSTARLINK-2421
Epoch Orbit195
Epoch Day173.91668981
Epoch Year2021
RAAN326.6598
Inclination53.048
Eccentricity0.0001534
Argument of Perigee63.2602
Mean Anonmoly113.4398
Mean Motion15.17630536
Decay Rate-0.01051561
L11 48098U 21027G 21173.91668981 -.01051561 00000-0 -56377-1 0 9993
L22 48098 53.0480 326.6598 0001534 63.2602 113.4398 15.17630536 1953

Live tracking and technical data element details for STARLINK-2421 (NORAD 48098). STARLINK-2421 can be tracked NOW for your location showing map with azimuth and elevation plus other details from your city location.

Track the satellite on the map from your city or location and see movement details for azimuth, elevation, latitude, longitude, range, height, and movement on the map or in text.







IsCatalogInMostPopularTable: catalog: 48098, numindb: 36
Update: records affected: 1



GetName: 48098 STARLINK-2421

Hit Count: updated at: Thu, 24 Jun 2021 03:23:47 GMT